#timestamp,LO_Frequency,Hit,StdDev 
1556510415.8,286046998.8,N
1556510435.6,286046999.6,N
1556510455.5,286046998.3,N
1556510475.3,286046997.2,N
1556510495.2,286046999.0,N
1556510515.9,286046998.1,N
1556510535.7,286047000.0,N
1556510555.6,286046998.8,N
1556510575.4,286046999.2,N
1556510595.2,286046996.8,Y
1556510615.1,286046999.0,P
1556510616.0,286046999.0,P
1556510635.8,286046999.3,P
1556510655.7,286046999.5,N
1556510675.5,286046999.0,Y
1556510695.3,286047000.9,P
1556510715.2,286047000.3,N
1556510735.0,286047000.1,N
1556510735.9,286047000.1,N
1556510755.7,286047001.3,N
1556510775.6,286047003.2,Y
1556510795.4,286047004.1,P
1556510815.3,286047001.5,N
1556510835.1,286046999.7,N
1556510836.0,286046999.7,N
1556510855.8,286047002.1,N
1556510875.7,286047002.7,N
1556510925.5,286047003.9,E
1556510935.5,286047001.8,N
1556510955.3,286046998.7,P
1556510975.1,286046996.5,N
1556510995.9,286046997.1,N
1556511015.7,286046997.4,N
1556511035.5,286046996.8,N
1556511055.4,286046996.7,N
1556511075.2,286046996.5,N
1556511095.1,286046999.1,N
1556511096.0,286046999.1,N
1556511115.8,286046999.5,N
1556511135.6,286046996.6,N
1556511155.5,286046999.3,N
1556511175.3,286047000.7,N
1556511195.1,286046998.1,N
1556511215.9,286046999.5,N
1556511235.7,286046998.5,N
1556511255.6,286046998.9,N
1556511275.4,286046999.3,N
1556511295.2,286046999.1,N
1556511315.1,286046996.5,N
1556511316.0,286046996.5,N
1556511335.8,286046998.7,N
1556511355.6,286046998.6,N
1556511375.5,286046998.1,N
1556511395.3,286047000.7,N
1556511415.2,286047000.7,N
1556511435.9,286047000.5,N
1556511455.7,286046998.2,N
1556511475.6,286046998.7,N
1556511495.4,286046999.4,N
1556511515.2,286046998.8,N
1556511535.1,286046998.7,N
1556511536.0,286046998.7,N
1556511555.8,286046998.8,N
1556511575.7,286047000.6,N
1556511595.5,286046999.9,N
1556511615.3,286047001.7,N
1556511635.2,286047004.4,Y
1556511655.9,286047004.2,P
1556511675.7,286046999.8,N
1556511695.6,286047002.1,N
1556511715.4,286047001.9,N
1556511735.3,286047001.6,N
1556511755.1,286047004.3,N
1556511756.0,286047004.3,N
1556511775.8,286047002.1,N
1556511795.7,286047001.9,N
1556511815.5,286047001.4,N
1556511835.3,286047004.0,N
1556511855.2,286047003.9,N
1556511875.0,286047004.0,N
1556511875.9,286047004.0,N
1556511895.8,286047004.4,N
1556511915.6,286047001.4,N
1556511935.4,286047003.3,N
1556511955.3,286047003.7,N
1556511975.1,286047001.3,N
1556511995.8,286047001.4,N
1556512015.7,286047002.7,N
1556512035.5,286046998.1,N
1556512055.3,286046999.6,N
1556512075.2,286046999.1,N
1556512095.0,286047001.0,N
1556512095.9,286047001.0,N
1556512115.8,286047000.0,N
1556512135.6,286047001.7,N
1556512155.4,286047003.8,N
1556512175.3,286047001.9,N
1556512195.1,286047001.4,N
1556512215.9,286047004.2,N
1556512235.7,286047003.9,N
1556512255.5,286046999.8,N
1556512275.4,286047000.0,N
1556512295.2,286047000.4,N
1556512315.0,286047001.5,N
1556512316.0,286047001.5,N
1556512335.8,286047001.3,N
1556512355.6,286047005.7,Y
1556512375.5,286047003.7,P
1556512395.3,286047004.4,P
1556512415.2,286046998.6,N
1556512435.9,286047001.0,N
1556512455.7,286047000.7,N
1556512475.6,286047001.6,N
1556512495.4,286047002.2,N
1556512515.2,286047000.1,N
1556512535.1,286047002.8,N
1556512536.0,286047002.8,N
1556512555.8,286047002.4,N
1556512575.7,286047002.6,N
1556512595.5,286047001.8,N
1556512615.3,286047004.3,N
1556512635.2,286047003.5,N
1556512655.0,286047004.4,N
1556512655.9,286047004.4,N
1556512675.7,286047002.0,N
1556512695.6,286047000.3,N
1556512715.4,286047001.5,N
1556512735.3,286047002.2,N
1556512755.1,286046999.8,N
1556512775.9,286046999.8,N
1556512795.7,286047001.9,N
1556512815.5,286047000.7,N
1556512835.4,286047000.8,N
1556512855.2,286047000.9,N
1556512875.0,286046998.2,N
1556512875.9,286046998.2,N
1556512895.8,286047001.0,N
1556512915.6,286047000.8,N
1556512935.5,286047000.5,N
1556512955.3,286047002.6,N
1556512975.1,286047002.7,N
1556512995.9,286047001.5,N
1556513015.7,286047002.8,N
1556513035.6,286047002.3,N
1556513055.4,286047001.3,N
1556513075.2,286047004.2,N
1556513095.1,286047005.9,Y
1556513096.0,286047005.9,P
1556513115.8,286047004.2,N
1556513135.6,286047002.2,N
1556513155.5,286047001.1,N
1556513175.3,286046998.1,N
1556513195.2,286046997.2,N
1556513215.9,286046997.6,N
1556513235.7,286046999.6,N
1556513255.6,286046999.4,N
1556513275.4,286047002.8,N
1556513295.2,286047000.4,N
1556513315.1,286047000.4,N
1556513316.0,286047000.4,N
1556513335.8,286047000.5,N
1556513355.7,286047000.5,N
1556513375.5,286047000.6,N
1556513395.3,286046998.5,N
1556513415.2,286047000.8,N
1556513435.0,286047000.2,N
1556513435.9,286047000.2,N
1556513455.7,286047002.2,N
1556513475.6,286047000.7,N
1556513495.4,286047000.2,N
1556513515.3,286047002.5,N
1556513535.1,286047000.4,N
1556513536.0,286047000.4,N
1556513555.8,286047000.0,N
1556513575.7,286047000.4,N
1556513595.5,286047000.2,N
1556513615.3,286046998.2,N
1556513635.2,286046999.5,N
1556513655.0,286046999.3,N
1556513655.9,286046999.3,N
1556513675.8,286046998.8,N
1556513695.6,286046999.2,N
1556513715.4,286047001.2,N
1556513735.3,286047000.6,N
1556513755.1,286047000.0,N
1556513775.8,286047000.0,N
1556513795.7,286047000.0,N
1556513815.5,286047002.6,N
1556513835.4,286047004.4,Y
1556513855.2,286047002.7,P
1556513875.0,286046999.8,N
1556513875.9,286046999.8,N
1556513895.8,286047002.1,N
1556513915.6,286047001.8,N
1556513935.5,286047003.9,Y
1556513955.3,286047001.9,P
1556513975.1,286047002.6,P
1556513995.9,286046999.8,N
